This demonstration page uses our WeatherBlox Daily Observations layout. Learn more.

40.92945, -100.16068

Hourly Observations for June 12, 2019

Temp ( °F °C ) Dew Point ( °F °C ) Humidity (%) Winds ( mph kmh ) Pressure ( in mb ) Visibility ( mi km ) Precip ( " mm )
12:15 am 00:15 Clear 52 11.2 51 10.7 97 97 W 7 11 30.09 1019 10 16.09344 0 0
12:35 am 00:35 Clear 52 11.2 51 10.5 96 96 WNW 7 11 30.09 1019 10 16.09344 0 0
12:55 am 00:55 Clear 52 11.1 51 10.5 96 96 WNW 7 11 30.09 1019 10 16.09344 0 0
1:15 am 01:15 Clear 52 11 51 10.5 97 97 WNW 8 13 30.09 1019 10 16.09344 0 0
1:35 am 01:35 Clear 52 11 51 10.5 97 97 WNW 7 11 30.09 1019 10 16.09344 0 0
1:55 am 01:55 Clear 52 11 50 10.1 94 94 WNW 8 13 30.09 1019 10 16.09344 0 0
2:15 am 02:15 Clear 51 10.7 50 9.9 95 95 WNW 6 9 30.12 1020 10 16.09344 0 0
2:35 am 02:35 Clear 52 10.9 49 9.7 92 92 WNW 8 13 30.09 1019 10 16.09344 0 0
2:55 am 02:55 Clear 51 10.6 50 9.8 95 95 WNW 8 13 30.12 1020 10 16.09344 0 0
3:15 am 03:15 Clear 51 10.3 49 9.6 95 95 WNW 8 13 30.12 1020 10 16.09344 0 0
3:35 am 03:35 Clear 50 10.2 49 9.5 95 95 WNW 8 13 30.12 1020 10 16.09344 0 0
3:55 am 03:55 Clear 50 10 49 9.3 95 95 NW 8 13 30.12 1020 10 16.09344 0 0
4:15 am 04:15 Clear 50 10.1 49 9.3 95 95 NW 10 17 30.12 1020 10 16.09344 0 0
4:35 am 04:35 Clear 51 10.3 49 9.5 95 95 WNW 9 15 30.12 1020 10 16.09344 0 0
4:55 am 04:55 Clear 50 10.2 49 9.3 94 94 WNW 10 17 30.15 1021 10 16.09344 0 0
5:15 am 05:15 Clear 50 10.1 48 9.1 94 94 NW 9 15 30.15 1021 10 16.09344 0 0
5:35 am 05:35 Clear 50 10 48 8.8 92 92 NW 12 19 30.15 1021 10 16.09344 0 0
5:55 am 05:55 Clear 50 10 48 9 94 94 WNW 12 19 30.15 1021 10 16.09344 0 0
6:15 am 06:15 Partly Cloudy 49 9.7 48 9 95 95 WNW 12 19 30.18 1022 10 16.09344 0 0
6:35 am 06:35 Partly Cloudy 49 9.7 48 8.8 94 94 NW 12 19 30.18 1022 10 16.09344 0 0
6:55 am 06:55 Sunny 50 9.8 48 8.8 94 94 NNW 10 17 30.18 1022 10 16.09344 0 0
7:15 am 07:15 Sunny 51 10.8 49 9.2 90 90 NNW 13 20 30.18 1022 10 16.09344 0 0
7:35 am 07:35 Sunny 52 11.2 49 9.5 89 89 NNW 12 19 30.18 1022 10 16.09344 0 0
7:55 am 07:55 Sunny 54 12.4 50 9.9 85 85 NNW 14 22 30.15 1021 10 16.09344 0 0
8:15 am 08:15 Sunny 56 13.2 51 10.6 84 84 NNW 13 20 30.15 1021 10 16.09344 0 0
8:35 am 08:35 Sunny 57 14 51 10.7 81 81 N 14 22 30.15 1021 10 16.09344 0 0
8:55 am 08:55 Sunny 58 14.6 52 10.9 79 79 N 17 28 30.15 1021 10 16.09344 0 0
9:15 am 09:15 Sunny 59 15 52 11 77 77 N 15 24 30.15 1021 10 16.09344 0 0
9:35 am 09:35 Sunny 60 15.5 51 10.8 74 74 N 17 28 30.15 1021 10 16.09344 0 0
9:55 am 09:55 Partly Cloudy 61 16 52 11.2 73 73 N 15 24 30.15 1021 10 16.09344 0 0
10:15 am 10:15 Partly Cloudy 61 16.3 52 11.2 72 72 N 15 24 30.15 1021 10 16.09344 0 0
10:35 am 10:35 Sunny 62 16.7 52 10.9 69 69 N 16 26 30.15 1021 10 16.09344 0 0
10:55 am 10:55 Partly Cloudy 63 17.2 51 10.5 65 65 N 17 28 30.15 1021 10 16.09344 0 0
11:15 am 11:15 Mostly Cloudy 64 17.6 51 10.4 63 63 N 17 28 30.15 1021 10 16.09344 0 0
11:35 am 11:35 Mostly Cloudy 63 17.2 51 10.5 65 65 N 16 26 30.15 1021 10 16.09344 0 0
11:55 am 11:55 Cloudy 65 18.2 52 11.1 63 63 NNE 17 28 30.15 1021 10 16.09344 0 0
12:15 pm 12:15 Mostly Cloudy 65 18.3 51 10.4 60 60 N 16 26 30.12 1020 10 16.09344 0 0
12:35 pm 12:35 Partly Cloudy 65 18.5 49 9.7 57 57 N 15 24 30.12 1020 10 16.09344 0 0
12:55 pm 12:55 Partly Cloudy 65 18.5 50 10.1 58 58 N 15 24 30.12 1020 10 16.09344 0 0
1:15 pm 13:15 Mostly Cloudy 65 18.6 48 9.1 54 54 N 17 28 30.12 1020 10 16.09344 0 0
1:35 pm 13:35 Mostly Cloudy 66 18.8 49 9.5 55 55 N 16 26 30.12 1020 10 16.09344 0 0
1:55 pm 13:55 Mostly Cloudy 66 19 49 9.3 54 54 NNE 13 20 30.12 1020 10 16.09344 0 0
2:15 pm 14:15 Mostly Cloudy 66 18.8 49 9.3 54 54 NNE 10 17 30.09 1019 10 16.09344 0 0
2:35 pm 14:35 Partly Cloudy 66 18.9 45 7.3 47 47 N 16 26 30.09 1019 10 16.09344 0 0
2:55 pm 14:55 Partly Cloudy 67 19.5 47 8.2 48 48 NNE 14 22 30.09 1019 10 16.09344 0 0
3:15 pm 15:15 Partly Cloudy 67 19.6 46 7.8 47 47 N 13 20 30.09 1019 10 16.09344 0 0
3:35 pm 15:35 Partly Cloudy 68 20.2 47 8.3 46 46 NE 12 19 30.09 1019 10 16.09344 0 0
3:55 pm 15:55 Partly Cloudy 68 20.1 47 8.4 47 47 N 12 19 30.09 1019 10 16.09344 0 0
4:15 pm 16:15 Partly Cloudy 68 20 46 7.5 45 45 NNE 12 19 30.09 1019 10 16.09344 0 0
4:35 pm 16:35 Partly Cloudy 68 20.1 46 7.5 44 44 N 8 13 30.09 1019 10 16.09344 0 0
4:55 pm 16:55 Partly Cloudy 68 20.1 44 6.6 42 42 N 5 7 30.09 1019 10 16.09344 0 0
5:15 pm 17:15 Sunny 68 19.9 44 6.7 42 42 NNE 3 6 30.09 1019 10 16.09344 0 0
5:35 pm 17:35 Partly Cloudy 68 20 44 6.5 42 42 N 9 15 30.09 1019 10 16.09344 0 0
5:55 pm 17:55 Sunny 68 20.2 47 8.3 46 46 N 9 15 30.09 1019 10 16.09344 0 0
6:15 pm 18:15 Sunny 68 20 45 7.2 44 44 NE 7 11 30.09 1019 10 16.09344 0 0
6:35 pm 18:35 Sunny 68 20 45 7.2 44 44 NNE 8 13 30.06 1018 7 11.265408 0 0
6:55 pm 18:55 Sunny 66 19.1 46 7.6 47 47 N 3 6 30.06 1018 10 16.09344 0 0
7:15 pm 19:15 Sunny 67 19.4 44 6.5 43 43 N 5 7 30.06 1018 10 16.09344 0 0
7:35 pm 19:35 Sunny 66 18.8 46 7.9 49 49 NNE 3 6 30.06 1018 10 16.09344 0 0
7:55 pm 19:55 Sunny 65 18.1 48 8.7 54 54 NE 6 9 30.06 1018 10 16.09344 0 0
8:15 pm 20:15 Sunny 64 17.6 47 8.6 56 56 E 3 6 30.09 1019 10 16.09344 0 0
8:35 pm 20:35 Sunny 61 16.2 48 9 63 63 E 5 7 30.09 1019 10 16.09344 0 0
8:55 pm 20:55 Sunny 59 15.1 47 8.3 64 64 E 5 7 30.09 1019 10 16.09344 0 0
9:15 pm 21:15 Clear 61 16.1 43 6.3 52 52 ESE 3 6 30.09 1019 10 16.09344 0 0
9:35 pm 21:35 Clear 59 14.8 44 6.9 59 59 SSE 3 6 30.09 1019 10 16.09344 0 0
9:55 pm 21:55 Clear 55 12.6 46 7.6 72 72 SE 5 7 30.12 1020 10 16.09344 0 0
10:15 pm 22:15 Clear 56 13.4 45 7.1 66 66 SSE 6 9 30.12 1020 10 16.09344 0 0
10:35 pm 22:35 Clear 56 13.1 46 7.5 69 69 SSE 3 6 30.12 1020 10 16.09344 0 0
10:55 pm 22:55 Clear 53 11.9 47 8.4 79 79 SSE 3 6 30.12 1020 10 16.09344 0 0
11:15 pm 23:15 Clear 53 11.8 46 7.9 77 77 SSE 5 7 30.12 1020 10 16.09344 0 0
11:35 pm 23:35 Clear 53 11.5 47 8.5 82 82 S 5 7 30.12 1020 10 16.09344 0 0
11:55 pm 23:55 Clear 52 11.1 46 7.7 80 80 S 5 7 30.15 1021 10 16.09344 0 0

Powered by AerisWeather